Theta_e
312 309 309 312 308 307 307 307 306 308 308 307 307 309 310 314 311 310 311 310 313 313 312 313 314 313 314 314 311 309 304 306 310 310 309 312 310 311 312 313 313 314 314 314 315
310 307 307 311 310 307 307 307 306 310 309 308 309 308 310 315 313 312 313 311 312 314 314 314 313 313 313 312 312 304 302 306 306 308 308 309 308 310 311 311 312 313 314 314 314
308 306 306 307 308 307 307 307 306 310 311 309 312 310 310 317 316 313 313 313 312 314 314 314 314 313 312 311 311 307 307 307 309 310 311 309 309 311 309 309 311 312 313 314 314
309 307 306 306 306 306 307 307 307 311 312 311 309 309 311 317 314 314 313 313 314 314 314 314 314 313 310 311 311 311 310 309 312 313 311 309 311 309 310 311 314 313 313 313 313
315 307 306 307 307 307 307 308 312 312 312 312 309 309 316 316 314 314 313 313 313 314 314 314 314 313 312 311 311 309 310 312 313 313 312 312 310 310 312 314 314 314 313 313 314
316 310 306 310 311 309 312 314 313 313 312 313 313 309 312 312 314 315 314 313 314 313 313 314 314 315 313 312 311 312 311 311 313 313 311 310 310 310 314 314 313 313 314 314 314
315 315 306 310 313 314 315 314 313 312 313 312 314 315 315 315 316 315 314 314 313 313 313 313 313 314 315 311 313 313 311 308 309 311 310 310 311 310 314 314 314 316 315 315 315
313 315 310 306 314 315 315 312 312 312 312 313 314 314 316 315 315 315 316 315 314 314 314 314 313 314 314 314 312 311 309 310 310 311 313 312 311 312 315 314 315 315 316 317 317
314 315 314 307 312 314 312 310 312 313 313 314 314 315 315 315 314 314 315 315 315 315 315 314 313 313 313 312 311 310 313 312 312 311 312 312 314 313 315 315 314 315 316 316 316
314 315 315 308 312 311 310 311 312 313 313 313 314 313 314 314 314 314 314 314 314 315 315 313 313 310 308 309 314 313 312 312 313 313 313 313 314 314 315 315 314 315 316 316 316
314 315 314 308 314 311 310 311 313 313 314 314 314 313 314 313 313 313 313 314 314 314 311 311 310 311 311 310 312 312 312 313 313 313 313 314 314 314 314 314 313 314 315 316 317
314 315 309 308 314 311 309 312 313 314 313 315 315 315 316 313 314 313 314 313 313 311 311 309 310 311 310 310 311 311 312 313 312 312 312 313 313 314 314 312 314 314 314 316 316
314 312 311 310 312 310 310 311 311 315 313 315 318 312 313 312 314 313 313 313 312 312 309 308 309 311 312 312 312 312 312 313 313 313 313 314 317 316 314 313 314 314 315 316 317
316 312 312 312 312 312 313 313 313 315 307 311 311 312 312 312 312 313 313 312 311 311 311 311 310 312 311 312 312 313 313 315 317 316 318 315 320 316 314 314 312 313 315 315 316
316 314 315 314 313 312 313 315 316 317 314 311 310 312 312 312 311 312 313 311 311 311 314 313 313 312 312 313 314 315 317 317 314 313 311 313 315 315 313 312 311 311 314 315 316
317 313 315 315 314 314 313 317 316 310 314 311 310 311 310 311 311 311 312 311 311 315 314 313 313 311 311 316 317 314 312 311 310 311 315 313 315 314 314 314 312 311 314 315 315
317 315 316 316 316 315 314 317 314 311 312 312 311 310 310 310 310 312 312 309 308 309 311 312 312 311 315 315 311 310 311 315 306 314 313 314 312 315 314 314 313 312 313 315 315
317 317 318 318 316 316 315 310 313 313 314 312 313 310 311 310 310 311 310 308 309 312 307 312 314 312 313 313 313 311 314 315 308 307 310 310 312 312 312 313 314 314 314 315 315
314 317 318 318 316 316 315 311 312 314 314 316 313 312 311 310 310 308 308 308 310 312 311 314 314 311 311 311 312 313 314 313 316 309 315 312 311 310 311 311 311 311 313 314 314
309 317 317 318 316 317 311 312 313 313 316 317 315 312 312 310 309 308 308 310 312 312 312 313 314 312 313 313 313 313 312 313 317 315 314 313 312 314 311 310 310 312 310 313 314
311 317 317 316 316 316 313 313 313 316 317 317 314 311 310 309 309 308 309 309 310 312 312 311 310 313 312 314 313 312 314 314 314 314 317 316 312 309 311 310 309 311 312 314 315
313 311 317 312 314 310 312 314 316 317 317 316 313 311 312 310 308 308 309 309 310 312 310 309 311 315 314 313 312 311 312 313 316 316 316 317 315 312 312 310 311 312 314 314 314
315 315 315 312 310 309 311 313 315 316 316 316 315 314 312 310 314 308 309 310 311 311 309 310 313 315 313 311 311 315 314 312 314 314 315 315 313 311 312 311 311 311 313 312 311
314 310 314 313 313 311 311 311 314 315 315 314 314 312 313 315 313 312 312 310 310 310 311 313 313 315 315 314 312 313 313 313 314 315 313 313 312 311 311 311 307 308 309 310 309
312 311 313 307 309 310 310 311 314 313 315 314 315 314 315 315 314 311 309 310 311 310 313 311 315 314 311 312 311 312 312 312 312 312 314 313 313 312 311 309 307 307 308 308 307
311 311 311 310 311 311 309 310 313 312 313 312 315 312 313 314 313 314 310 312 310 309 311 310 315 313 311 311 310 311 311 312 313 313 313 313 314 308 307 306 306 307 308 306 305
308 309 310 309 308 309 308 310 311 310 310 312 310 311 313 312 312 311 311 311 310 308 307 312 312 313 314 310 311 310 311 311 309 309 308 309 308 306 306 306 305 305 305 304 303
Wind_Speed
23 20 16 13 12 11 11 13 15 16 17 14 15 14 9 8 10 14 15 11 13 13 11 6 6 7 5 5 4 3 4 0 3 2 5 11 5 15 13 14 8 10 10 10 11
24 20 17 14 12 10 10 11 14 15 16 15 14 12 7 4 8 14 14 12 10 12 13 12 11 7 4 5 4 5 3 6 4 3 5 11 10 19 6 13 9 14 12 6 9
26 21 18 15 12 10 10 12 14 14 16 14 16 10 5 4 6 8 11 11 9 11 12 13 14 8 6 4 6 1 3 3 5 6 6 7 12 11 5 5 14 11 9 10 13
28 22 19 17 13 10 10 11 12 13 15 15 16 6 5 5 3 7 8 11 10 11 12 10 13 4 3 3 3 1 8 5 8 20 14 4 10 10 9 13 14 14 14 8 15
31 22 18 16 13 11 11 11 11 14 13 12 13 7 7 8 7 7 5 6 7 9 10 11 11 4 2 2 5 2 2 12 19 25 24 20 12 11 16 23 21 16 12 14 19
33 25 17 15 13 11 11 10 12 16 10 10 10 7 6 5 4 3 3 3 6 9 10 9 7 9 3 3 1 4 11 14 15 25 19 8 10 6 19 13 15 20 22 22 22
33 29 18 13 12 11 12 13 15 15 6 9 7 7 8 5 2 3 3 2 3 6 9 8 9 6 8 6 3 8 7 7 3 3 6 4 7 5 16 18 14 23 19 18 20
33 30 20 12 9 10 12 16 18 8 9 6 5 5 4 6 7 8 9 10 8 10 13 13 13 11 5 6 7 6 3 5 6 5 5 1 9 8 31 17 30 25 19 23 21
35 30 20 12 6 9 12 15 11 7 11 7 4 4 3 8 11 10 11 15 18 17 17 14 12 6 1 2 5 3 8 6 8 5 4 2 12 11 25 33 24 27 29 22 20
36 32 20 11 6 9 13 10 6 5 11 4 7 2 6 10 16 19 18 16 18 20 20 6 4 1 2 3 9 12 8 9 11 4 8 14 16 20 14 22 24 25 29 24 16
36 30 17 9 5 8 15 7 8 3 8 3 7 2 8 16 12 15 21 11 11 8 3 3 1 7 13 13 16 10 9 15 14 13 5 16 16 25 13 17 19 23 27 26 23
35 23 14 8 5 9 13 9 9 6 8 5 4 6 7 12 4 17 22 12 2 2 4 4 6 12 7 8 10 12 13 17 16 13 7 12 18 26 15 13 22 25 26 28 26
33 15 15 8 5 11 10 12 9 7 1 4 2 9 9 9 2 6 20 9 1 3 8 5 7 5 10 13 13 14 10 15 13 4 6 7 22 23 16 20 25 29 32 29 27
28 12 15 10 5 12 10 12 9 5 4 4 3 3 14 10 3 3 13 8 3 7 4 6 4 8 12 11 8 9 4 6 5 4 6 4 15 21 9 17 13 17 26 32 33
22 9 16 16 11 13 14 18 6 1 2 6 3 4 13 4 6 5 11 11 4 6 2 8 5 16 16 6 3 6 4 6 7 10 5 7 6 9 3 8 10 10 28 31 29
17 4 12 16 14 17 20 9 3 5 2 5 4 7 5 4 4 8 7 11 6 2 3 9 9 5 6 4 3 2 4 13 4 2 6 12 12 8 4 6 6 7 21 26 24
15 5 11 14 16 16 18 1 5 4 5 5 4 6 3 5 4 3 4 8 1 5 5 9 4 6 4 3 3 6 5 4 5 3 6 2 5 13 9 12 9 10 16 17 15
12 4 12 18 16 11 13 5 4 1 5 6 6 6 4 4 5 3 5 5 3 3 3 4 16 2 1 5 8 7 6 2 5 3 4 6 6 6 10 13 17 15 14 10 15
11 1 10 14 13 12 7 5 5 2 4 6 8 2 3 2 4 6 3 4 5 7 1 5 10 11 15 20 3 1 4 1 5 6 7 5 5 9 14 13 10 12 12 13 12
16 5 9 15 13 9 5 3 3 3 5 3 3 1 7 8 4 6 3 5 3 6 5 5 19 3 1 3 8 7 4 1 3 4 6 5 4 9 7 8 6 5 7 9 11
11 3 10 15 8 4 3 4 4 9 7 3 4 5 5 6 3 3 7 6 1 3 8 4 6 9 8 4 4 1 3 5 3 3 4 5 5 7 8 8 6 6 9 10 16
11 3 13 15 6 4 1 4 7 5 9 4 2 2 3 5 5 4 6 6 13 2 7 5 4 8 16 20 10 6 6 5 4 3 5 5 9 8 18 3 3 4 12 16 17
14 6 10 12 4 4 7 6 6 6 5 3 3 2 3 3 7 4 7 9 9 4 5 3 3 8 6 1 2 2 4 7 10 6 17 14 8 2 1 6 10 16 15 18 27
9 4 6 9 7 3 4 4 5 11 7 11 8 4 4 10 9 9 20 9 11 13 27 9 4 8 12 14 14 20 19 15 15 9 15 18 31 17 19 19 13 24 29 27 27
9 3 3 4 3 6 2 3 4 7 3 13 4 2 12 11 20 8 5 17 17 12 1 2 7 9 12 18 21 24 25 24 22 24 19 26 25 20 15 13 16 25 26 25 26
6 6 6 19 8 3 2 3 4 8 6 9 4 17 15 13 16 25 15 18 10 2 3 3 5 6 12 21 18 23 21 18 22 24 25 27 24 11 16 16 20 25 18 18 23
8 7 6 7 4 3 3 4 7 19 12 11 16 15 14 16 19 32 39 38 20 10 3 3 3 4 17 10 18 9 4 1 4 5 6 14 20 21 24 24 18 24 25 24 31
Wind_Direction
6 2 360 355 352 354 357 359 360 4 6 10 12 11 27 62 65 61 48 55 64 63 59 54 25 29 66 70 70 85 61 213 258 280 253 297 324 309 294 282 288 291 302 319 339
11 8 5 358 351 347 352 354 357 5 7 9 4 5 18 68 82 55 39 48 63 53 49 45 41 56 66 46 46 76 106 228 222 264 293 321 308 294 268 269 281 270 284 315 332
14 13 10 5 356 353 353 353 355 1 1 358 353 351 20 70 109 36 42 58 65 48 40 38 28 39 59 40 26 11 191 211 272 306 331 289 309 320 240 287 268 250 282 301 308
14 13 13 13 13 9 1 356 356 358 -0 359 2 21 72 76 92 49 70 67 65 58 50 35 29 58 60 12 341 292 254 245 299 310 316 262 292 297 263 271 289 283 278 290 304
12 11 14 17 15 10 3 1 3 356 357 5 20 58 78 83 84 54 79 58 41 29 22 16 21 38 26 254 315 180 276 302 298 300 293 288 246 246 272 287 290 281 251 280 292
12 7 9 13 13 12 11 3 351 352 360 8 27 62 87 87 88 41 45 18 3 356 353 346 340 339 297 266 145 244 273 277 289 279 273 249 260 183 268 291 281 285 285 290 289
9 6 2 7 15 16 9 359 346 345 3 0 35 85 84 83 64 353 352 342 316 321 321 341 309 298 313 313 311 289 303 335 273 281 275 282 300 220 288 306 310 318 313 316 309
5 3 357 357 7 6 355 346 345 3 18 33 55 82 92 26 11 359 316 316 296 291 296 304 305 275 258 284 331 342 48 350 283 312 303 327 282 286 300 316 315 306 308 315 314
360 359 354 349 353 360 356 346 357 41 10 55 77 59 64 350 347 338 325 302 292 287 292 293 284 248 212 52 350 340 277 263 298 180 283 170 288 280 301 301 290 294 301 305 309
356 355 350 352 13 18 3 355 24 37 6 60 42 41 27 341 332 343 339 312 289 278 291 232 201 116 46 97 267 279 267 259 271 268 287 287 277 276 280 281 277 280 292 292 299
356 354 352 2 27 14 8 15 12 4 6 348 322 271 302 346 357 16 17 14 300 275 258 341 81 243 238 217 249 265 256 261 272 272 271 274 281 279 281 259 267 274 283 278 282
356 358 8 12 34 23 19 51 27 333 315 358 349 337 349 335 353 22 8 13 360 313 315 339 243 256 311 288 266 264 261 264 270 269 221 271 275 278 281 257 255 263 261 270 274
357 14 13 12 39 11 18 23 352 337 284 311 15 23 11 340 57 24 25 352 12 263 282 236 261 318 319 306 287 277 259 271 264 285 250 279 277 285 284 262 260 252 258 262 261
359 36 36 39 41 17 14 356 342 343 59 309 0 5 356 339 23 20 2 3 297 285 285 259 262 311 314 299 273 286 298 309 289 329 278 131 288 287 266 262 245 248 248 252 259
1 51 37 34 26 12 350 335 325 351 357 311 333 341 1 36 311 330 346 337 248 271 82 258 287 312 310 248 302 260 307 275 270 272 285 223 259 274 165 272 257 234 246 258 265
2 28 18 13 12 355 353 348 120 45 287 332 332 331 1 286 278 304 301 316 293 245 225 253 283 236 226 276 266 357 336 317 313 213 250 214 204 271 226 228 252 239 244 263 270
6 33 11 358 347 348 352 341 34 107 6 310 314 320 320 265 286 269 311 319 273 356 309 301 251 268 217 258 319 57 358 300 332 209 237 295 281 256 281 270 252 259 270 281 293
3 42 25 6 354 352 356 54 74 287 276 308 295 287 268 343 264 294 282 294 262 195 322 309 314 224 111 204 289 285 184 220 253 244 267 324 252 260 251 268 287 285 278 296 329
354 331 3 5 360 357 360 57 191 236 304 295 313 298 281 320 274 360 269 248 245 173 194 326 285 298 276 279 213 181 200 210 265 234 267 228 297 290 260 272 278 272 277 298 343
350 273 352 345 352 352 69 227 221 227 318 313 299 298 313 324 332 349 286 246 253 191 189 242 295 269 332 276 219 162 167 255 207 270 262 261 242 236 279 285 298 337 343 323 343
360 14 351 348 332 39 115 243 278 303 333 290 264 283 280 308 274 262 255 291 202 265 195 257 218 277 319 252 204 129 248 224 251 226 269 288 242 223 240 258 286 298 325 341 345
3 17 345 347 43 20 24 305 304 293 347 286 271 247 296 316 277 256 252 248 303 335 284 229 252 279 285 283 302 230 242 206 232 244 241 256 251 265 271 259 174 264 304 319 319
348 324 353 4 69 349 323 308 291 325 319 316 295 38 293 296 332 247 265 278 297 344 271 192 248 298 297 84 198 253 220 213 235 252 249 262 260 73 222 305 328 324 323 314 313
0 355 358 50 96 91 333 284 308 328 305 9 311 348 358 317 275 279 286 295 312 290 288 230 228 238 281 277 295 285 267 255 257 257 275 251 272 276 279 297 330 314 302 303 312
19 12 8 315 342 326 227 270 285 329 288 319 274 280 343 310 309 262 253 295 299 290 59 205 259 256 250 271 283 274 275 273 262 263 260 276 271 273 286 296 298 292 283 285 293
31 5 339 299 294 303 295 263 277 355 310 301 261 321 309 288 275 293 296 295 277 316 180 230 274 267 275 285 276 281 276 265 266 265 265 265 273 273 269 268 283 275 260 267 279
10 357 325 284 306 301 237 279 321 325 287 279 313 299 289 283 280 289 280 275 263 261 227 230 266 279 294 303 305 290 299 261 300 288 278 286 289 296 289 285 275 269 263 265 273